Precipitable_Water
0.92 0.92 0.92 0.92 0.92 0.90 0.90 0.86 0.86 0.86 0.88 0.94 0.96 0.97 0.97 0.99 0.99 0.99 0.97 0.97 0.96 0.94 0.90 0.90 0.90 0.90 0.86 0.84 0.82 0.80 0.78 0.76 0.74 0.72 0.70 0.70 0.68 0.66 0.64 0.58 0.54 0.52 0.50 0.48 0.46 0.46 0.46 0.46 0.46 0.46 0.46 0.46 0.48 0.48 0.48 0.48 0.50 0.50 0.50 0.50 0.50 0.50 0.52 0.52 0.52 0.52 0.52 0.50 0.50 0.50 0.50 0.48 0.48 0.48 0.46 0.48 0.50 0.50 0.50 0.52 0.50 0.50 0.52 0.50 0.50 0.52
0.90 0.90 0.86 0.86 0.84 0.82 0.82 0.82 0.82 0.84 0.84 0.90 0.94 0.96 0.97 0.97 0.97 0.97 0.96 0.96 0.94 0.92 0.88 0.88 0.88 0.86 0.82 0.80 0.80 0.78 0.78 0.76 0.72 0.72 0.70 0.68 0.64 0.62 0.60 0.54 0.52 0.50 0.48 0.46 0.46 0.44 0.44 0.44 0.44 0.44 0.44 0.44 0.46 0.46 0.44 0.46 0.46 0.46 0.46 0.48 0.48 0.48 0.48 0.50 0.50 0.48 0.50 0.46 0.46 0.46 0.46 0.44 0.42 0.42 0.40 0.44 0.46 0.46 0.46 0.48 0.48 0.46 0.48 0.46 0.48 0.50
0.86 0.86 0.84 0.84 0.82 0.80 0.78 0.80 0.82 0.84 0.86 0.88 0.92 0.94 0.96 0.96 0.96 0.94 0.92 0.92 0.92 0.90 0.86 0.86 0.84 0.84 0.80 0.78 0.78 0.76 0.76 0.74 0.72 0.72 0.70 0.66 0.62 0.58 0.56 0.52 0.50 0.48 0.46 0.46 0.44 0.44 0.44 0.44 0.44 0.44 0.42 0.42 0.44 0.44 0.42 0.42 0.44 0.44 0.42 0.44 0.44 0.44 0.44 0.46 0.44 0.44 0.44 0.42 0.40 0.40 0.40 0.38 0.38 0.38 0.36 0.38 0.40 0.42 0.40 0.42 0.42 0.42 0.44 0.42 0.44 0.48
0.84 0.84 0.84 0.84 0.84 0.82 0.78 0.80 0.82 0.84 0.88 0.90 0.92 0.94 0.94 0.94 0.94 0.92 0.90 0.90 0.88 0.86 0.84 0.84 0.82 0.82 0.78 0.76 0.76 0.76 0.74 0.72 0.70 0.70 0.68 0.62 0.58 0.56 0.54 0.52 0.48 0.48 0.46 0.44 0.44 0.44 0.42 0.42 0.42 0.42 0.40 0.40 0.42 0.40 0.40 0.40 0.40 0.40 0.38 0.40 0.40 0.40 0.40 0.40 0.38 0.36 0.38 0.38 0.36 0.34 0.36 0.34 0.34 0.34 0.34 0.36 0.36 0.38 0.38 0.40 0.40 0.40 0.40 0.40 0.42 0.42
0.84 0.84 0.86 0.84 0.82 0.80 0.80 0.80 0.80 0.84 0.86 0.90 0.92 0.92 0.92 0.92 0.92 0.90 0.90 0.88 0.86 0.84 0.82 0.80 0.80 0.78 0.74 0.74 0.74 0.74 0.74 0.72 0.70 0.68 0.64 0.58 0.54 0.52 0.52 0.50 0.48 0.46 0.46 0.44 0.42 0.42 0.42 0.40 0.40 0.40 0.38 0.38 0.38 0.38 0.36 0.36 0.36 0.36 0.34 0.34 0.36 0.36 0.33 0.34 0.33 0.31 0.31 0.33 0.31 0.31 0.31 0.31 0.31 0.33 0.33 0.33 0.34 0.34 0.36 0.36 0.38 0.38 0.40 0.40 0.40 0.40
0.84 0.86 0.86 0.84 0.82 0.80 0.78 0.78 0.80 0.80 0.82 0.86 0.88 0.88 0.90 0.90 0.88 0.88 0.86 0.86 0.84 0.82 0.78 0.78 0.76 0.76 0.72 0.74 0.74 0.74 0.72 0.70 0.68 0.64 0.62 0.56 0.52 0.52 0.50 0.48 0.46 0.46 0.44 0.42 0.42 0.40 0.40 0.38 0.38 0.36 0.36 0.34 0.34 0.34 0.33 0.33 0.33 0.33 0.31 0.31 0.31 0.31 0.29 0.29 0.27 0.27 0.27 0.27 0.27 0.27 0.27 0.27 0.29 0.29 0.31 0.31 0.33 0.34 0.34 0.36 0.38 0.38 0.38 0.40 0.40 0.40
0.82 0.84 0.84 0.82 0.80 0.78 0.78 0.78 0.78 0.80 0.82 0.84 0.84 0.84 0.86 0.88 0.86 0.84 0.84 0.82 0.82 0.80 0.76 0.74 0.74 0.72 0.70 0.72 0.72 0.72 0.72 0.66 0.62 0.60 0.58 0.54 0.52 0.50 0.50 0.46 0.44 0.44 0.42 0.40 0.38 0.38 0.38 0.34 0.34 0.34 0.34 0.33 0.31 0.31 0.31 0.31 0.31 0.31 0.29 0.29 0.29 0.29 0.27 0.27 0.25 0.25 0.25 0.25 0.25 0.25 0.25 0.27 0.27 0.27 0.29 0.29 0.31 0.33 0.33 0.34 0.36 0.36 0.38 0.38 0.38 0.38
0.80 0.80 0.78 0.76 0.76 0.76 0.76 0.76 0.78 0.80 0.80 0.82 0.80 0.80 0.82 0.82 0.82 0.80 0.80 0.80 0.80 0.76 0.72 0.72 0.70 0.70 0.70 0.70 0.70 0.70 0.70 0.62 0.58 0.56 0.54 0.50 0.48 0.48 0.46 0.42 0.40 0.40 0.40 0.36 0.34 0.34 0.34 0.31 0.31 0.31 0.31 0.29 0.29 0.29 0.29 0.29 0.29 0.29 0.27 0.27 0.27 0.27 0.25 0.25 0.25 0.25 0.25 0.25 0.25 0.25 0.27 0.27 0.27 0.27 0.29 0.29 0.31 0.31 0.31 0.33 0.34 0.36 0.36 0.38 0.38 0.38
0.74 0.74 0.70 0.72 0.72 0.72 0.72 0.72 0.74 0.78 0.80 0.80 0.78 0.78 0.76 0.78 0.76 0.74 0.76 0.76 0.76 0.74 0.70 0.68 0.68 0.68 0.68 0.68 0.68 0.66 0.64 0.58 0.54 0.52 0.50 0.46 0.44 0.44 0.42 0.38 0.36 0.36 0.36 0.33 0.31 0.31 0.31 0.29 0.29 0.29 0.29 0.29 0.29 0.27 0.27 0.27 0.27 0.27 0.27 0.27 0.27 0.25 0.25 0.25 0.25 0.25 0.25 0.25 0.25 0.27 0.27 0.27 0.27 0.27 0.29 0.29 0.29 0.31 0.31 0.31 0.33 0.34 0.34 0.36 0.38 0.38
0.70 0.70 0.68 0.68 0.68 0.68 0.68 0.70 0.72 0.74 0.78 0.78 0.78 0.76 0.74 0.74 0.70 0.68 0.68 0.70 0.70 0.70 0.68 0.66 0.66 0.66 0.66 0.66 0.64 0.62 0.58 0.52 0.50 0.48 0.46 0.42 0.40 0.38 0.38 0.34 0.33 0.33 0.33 0.31 0.29 0.29 0.29 0.29 0.29 0.29 0.29 0.27 0.27 0.27 0.25 0.25 0.25 0.25 0.25 0.25 0.25 0.25 0.25 0.25 0.25 0.25 0.25 0.27 0.27 0.29 0.29 0.29 0.29 0.29 0.29 0.29 0.29 0.29 0.29 0.31 0.31 0.33 0.33 0.34 0.36 0.36
0.68 0.68 0.66 0.66 0.66 0.68 0.68 0.70 0.72 0.74 0.76 0.76 0.74 0.72 0.72 0.70 0.68 0.66 0.64 0.64 0.66 0.66 0.66 0.66 0.66 0.66 0.64 0.62 0.60 0.58 0.54 0.48 0.46 0.44 0.42 0.36 0.34 0.34 0.33 0.31 0.29 0.29 0.29 0.29 0.29 0.29 0.29 0.29 0.29 0.29 0.29 0.27 0.27 0.25 0.25 0.25 0.23 0.25 0.25 0.25 0.25 0.25 0.25 0.25 0.25 0.27 0.27 0.27 0.29 0.29 0.29 0.29 0.31 0.31 0.31 0.31 0.31 0.29 0.31 0.31 0.31 0.31 0.33 0.33 0.34 0.34
0.64 0.66 0.66 0.66 0.66 0.66 0.68 0.68 0.70 0.72 0.72 0.72 0.70 0.68 0.68 0.68 0.68 0.66 0.64 0.62 0.62 0.64 0.66 0.66 0.66 0.64 0.60 0.56 0.54 0.52 0.50 0.44 0.40 0.38 0.36 0.33 0.31 0.29 0.29 0.27 0.25 0.27 0.27 0.27 0.27 0.27 0.29 0.29 0.27 0.27 0.27 0.27 0.25 0.25 0.25 0.23 0.23 0.23 0.23 0.25 0.25 0.25 0.27 0.27 0.27 0.27 0.29 0.29 0.29 0.31 0.31 0.31 0.31 0.33 0.33 0.33 0.33 0.31 0.31 0.31 0.31 0.31 0.31 0.31 0.33 0.33
0.64 0.66 0.66 0.66 0.66 0.66 0.66 0.66 0.68 0.68 0.70 0.68 0.66 0.66 0.66 0.68 0.68 0.66 0.64 0.64 0.64 0.64 0.66 0.66 0.64 0.62 0.56 0.54 0.50 0.48 0.46 0.38 0.36 0.34 0.33 0.29 0.27 0.27 0.25 0.25 0.25 0.25 0.25 0.25 0.25 0.25 0.27 0.27 0.27 0.27 0.27 0.25 0.25 0.25 0.25 0.23 0.23 0.23 0.25 0.25 0.25 0.27 0.27 0.29 0.29 0.29 0.29 0.29 0.31 0.31 0.31 0.31 0.33 0.33 0.33 0.34 0.33 0.33 0.33 0.33 0.33 0.31 0.31 0.31 0.33 0.33
0.64 0.64 0.64 0.64 0.64 0.66 0.66 0.66 0.66 0.66 0.66 0.68 0.70 0.70 0.68 0.68 0.68 0.66 0.66 0.64 0.66 0.66 0.66 0.64 0.60 0.58 0.52 0.50 0.48 0.46 0.42 0.36 0.33 0.31 0.29 0.27 0.25 0.25 0.25 0.23 0.23 0.23 0.23 0.23 0.23 0.25 0.25 0.25 0.25 0.27 0.27 0.25 0.25 0.25 0.23 0.23 0.23 0.25 0.27 0.27 0.27 0.27 0.29 0.29 0.29 0.29 0.31 0.31 0.31 0.31 0.31 0.33 0.33 0.33 0.34 0.34 0.34 0.34 0.33 0.33 0.33 0.33 0.33 0.33 0.33 0.33
0.62 0.62 0.62 0.62 0.62 0.64 0.66 0.66 0.68 0.68 0.68 0.70 0.70 0.70 0.70 0.70 0.68 0.68 0.66 0.66 0.66 0.64 0.60 0.58 0.56 0.52 0.46 0.44 0.42 0.40 0.38 0.33 0.29 0.27 0.27 0.25 0.25 0.25 0.25 0.23 0.23 0.23 0.23 0.23 0.23 0.25 0.25 0.25 0.25 0.25 0.25 0.25 0.23 0.23 0.23 0.25 0.25 0.27 0.29 0.29 0.29 0.29 0.31 0.31 0.31 0.31 0.31 0.31 0.31 0.31 0.33 0.33 0.33 0.34 0.34 0.34 0.34 0.34 0.34 0.34 0.34 0.34 0.34 0.34 0.34 0.34
0.64 0.64 0.62 0.62 0.62 0.64 0.66 0.68 0.68 0.68 0.70 0.70 0.70 0.70 0.70 0.68 0.68 0.68 0.66 0.66 0.64 0.62 0.56 0.52 0.50 0.46 0.38 0.38 0.38 0.36 0.33 0.29 0.27 0.25 0.23 0.23 0.25 0.25 0.25 0.25 0.23 0.23 0.23 0.23 0.23 0.23 0.25 0.25 0.25 0.25 0.25 0.25 0.25 0.25 0.25 0.27 0.27 0.29 0.29 0.29 0.31 0.31 0.31 0.31 0.31 0.31 0.31 0.31 0.33 0.33 0.33 0.33 0.33 0.34 0.34 0.34 0.34 0.34 0.34 0.34 0.34 0.34 0.34 0.34 0.34 0.36
0.64 0.64 0.62 0.62 0.62 0.64 0.66 0.68 0.68 0.70 0.70 0.70 0.70 0.70 0.70 0.68 0.68 0.68 0.66 0.62 0.60 0.56 0.48 0.46 0.42 0.38 0.33 0.33 0.33 0.33 0.33 0.27 0.25 0.25 0.23 0.23 0.25 0.25 0.25 0.25 0.23 0.23 0.23 0.23 0.23 0.25 0.25 0.25 0.25 0.25 0.25 0.25 0.25 0.25 0.27 0.29 0.29 0.29 0.31 0.31 0.31 0.31 0.31 0.31 0.31 0.31 0.33 0.33 0.33 0.33 0.33 0.33 0.34 0.34 0.34 0.34 0.34 0.34 0.34 0.34 0.34 0.34 0.36 0.36 0.36 0.36
0.64 0.64 0.64 0.64 0.64 0.64 0.66 0.68 0.68 0.70 0.70 0.70 0.72 0.72 0.72 0.70 0.68 0.64 0.58 0.56 0.52 0.48 0.40 0.38 0.36 0.33 0.27 0.27 0.27 0.29 0.29 0.27 0.25 0.25 0.25 0.23 0.23 0.25 0.25 0.25 0.23 0.23 0.23 0.23 0.25 0.25 0.25 0.25 0.25 0.25 0.25 0.25 0.27 0.27 0.29 0.29 0.29 0.29 0.31 0.31 0.31 0.31 0.33 0.33 0.33 0.33 0.33 0.33 0.33 0.33 0.34 0.34 0.34 0.34 0.34 0.36 0.36 0.36 0.36 0.36 0.36 0.36 0.36 0.36 0.36 0.36
0.64 0.64 0.64 0.64 0.64 0.66 0.68 0.68 0.70 0.70 0.70 0.72 0.72 0.70 0.70 0.68 0.62 0.56 0.52 0.50 0.46 0.44 0.38 0.34 0.31 0.29 0.25 0.25 0.25 0.27 0.27 0.27 0.25 0.25 0.23 0.23 0.23 0.25 0.25 0.25 0.25 0.23 0.23 0.23 0.25 0.25 0.25 0.25 0.25 0.25 0.25 0.27 0.27 0.29 0.29 0.29 0.29 0.31 0.31 0.31 0.33 0.33 0.33 0.33 0.33 0.33 0.33 0.33 0.33 0.34 0.34 0.34 0.34 0.36 0.36 0.36 0.36 0.36 0.36 0.38 0.38 0.38 0.36 0.38 0.38 0.38
0.64 0.64 0.64 0.66 0.66 0.66 0.68 0.68 0.70 0.72 0.72 0.70 0.68 0.64 0.62 0.60 0.54 0.46 0.44 0.42 0.40 0.38 0.34 0.33 0.29 0.27 0.25 0.25 0.25 0.27 0.27 0.25 0.25 0.23 0.23 0.21 0.23 0.23 0.25 0.25 0.23 0.23 0.23 0.23 0.25 0.25 0.25 0.25 0.25 0.25 0.27 0.27 0.27 0.27 0.29 0.29 0.31 0.31 0.31 0.33 0.33 0.33 0.34 0.33 0.33 0.33 0.34 0.34 0.34 0.34 0.36 0.36 0.36 0.36 0.36 0.36 0.36 0.38 0.38 0.38 0.38 0.38 0.38 0.38 0.38 0.38
0.64 0.66 0.68 0.68 0.68 0.68 0.68 0.70 0.70 0.72 0.72 0.64 0.60 0.56 0.52 0.50 0.44 0.40 0.38 0.38 0.36 0.34 0.31 0.29 0.27 0.27 0.25 0.25 0.25 0.25 0.27 0.27 0.25 0.23 0.23 0.21 0.23 0.23 0.25 0.25 0.23 0.23 0.23 0.25 0.25 0.25 0.25 0.27 0.27 0.27 0.27 0.27 0.29 0.29 0.29 0.31 0.31 0.31 0.31 0.33 0.34 0.34 0.34 0.34 0.34 0.34 0.34 0.34 0.36 0.36 0.36 0.36 0.36 0.38 0.38 0.38 0.38 0.38 0.38 0.38 0.40 0.40 0.40 0.40 0.40 0.40
0.66 0.68 0.70 0.70 0.70 0.68 0.66 0.66 0.66 0.66 0.66 0.56 0.52 0.48 0.46 0.44 0.40 0.36 0.36 0.34 0.33 0.31 0.27 0.27 0.25 0.25 0.25 0.25 0.25 0.27 0.27 0.27 0.25 0.23 0.23 0.21 0.21 0.23 0.25 0.25 0.27 0.25 0.25 0.25 0.25 0.27 0.27 0.27 0.27 0.27 0.29 0.29 0.31 0.31 0.31 0.31 0.31 0.33 0.33 0.34 0.34 0.34 0.34 0.34 0.34 0.34 0.36 0.36 0.36 0.38 0.38 0.38 0.38 0.38 0.38 0.38 0.38 0.38 0.38 0.38 0.40 0.40 0.40 0.40 0.42 0.42
0.66 0.66 0.68 0.68 0.68 0.66 0.60 0.60 0.60 0.58 0.58 0.52 0.48 0.44 0.42 0.40 0.36 0.33 0.33 0.31 0.29 0.29 0.27 0.27 0.27 0.27 0.27 0.27 0.27 0.27 0.29 0.27 0.27 0.25 0.23 0.23 0.23 0.25 0.27 0.27 0.27 0.27 0.25 0.27 0.27 0.27 0.29 0.29 0.29 0.29 0.29 0.31 0.31 0.31 0.31 0.33 0.33 0.33 0.34 0.36 0.36 0.36 0.36 0.36 0.36 0.36 0.38 0.38 0.38 0.38 0.38 0.38 0.38 0.38 0.38 0.38 0.38 0.38 0.38 0.38 0.40 0.40 0.40 0.40 0.40 0.42
0.62 0.62 0.62 0.62 0.62 0.60 0.56 0.54 0.54 0.54 0.52 0.46 0.42 0.40 0.38 0.36 0.34 0.31 0.31 0.29 0.29 0.29 0.27 0.27 0.27 0.27 0.27 0.27 0.27 0.27 0.29 0.29 0.29 0.29 0.27 0.25 0.27 0.27 0.29 0.29 0.29 0.27 0.27 0.29 0.29 0.29 0.29 0.31 0.31 0.31 0.31 0.33 0.33 0.33 0.33 0.34 0.34 0.36 0.36 0.38 0.38 0.38 0.36 0.38 0.38 0.38 0.40 0.40 0.38 0.38 0.38 0.38 0.38 0.38 0.38 0.38 0.38 0.38 0.38 0.38 0.38 0.40 0.40 0.40 0.40 0.40
0.56 0.56 0.56 0.56 0.56 0.54 0.50 0.50 0.48 0.48 0.48 0.40 0.36 0.36 0.34 0.33 0.31 0.31 0.29 0.29 0.29 0.27 0.27 0.27 0.25 0.25 0.25 0.27 0.27 0.29 0.31 0.31 0.31 0.31 0.29 0.29 0.29 0.29 0.29 0.31 0.31 0.29 0.29 0.31 0.31 0.31 0.31 0.33 0.33 0.33 0.33 0.34 0.34 0.34 0.34 0.36 0.38 0.38 0.38 0.40 0.38 0.38 0.38 0.40 0.40 0.40 0.40 0.40 0.40 0.40 0.40 0.40 0.40 0.40 0.40 0.40 0.38 0.38 0.38 0.38 0.38 0.38 0.40 0.40 0.40 0.40
0.48 0.50 0.50 0.50 0.50 0.50 0.44 0.44 0.42 0.40 0.40 0.34 0.33 0.33 0.31 0.31 0.31 0.29 0.29 0.29 0.29 0.27 0.27 0.25 0.25 0.25 0.27 0.27 0.27 0.29 0.33 0.33 0.33 0.33 0.31 0.31 0.29 0.29 0.31 0.31 0.31 0.31 0.31 0.33 0.33 0.33 0.33 0.33 0.34 0.34 0.34 0.34 0.36 0.36 0.36 0.40 0.40 0.40 0.40 0.40 0.40 0.40 0.40 0.40 0.40 0.40 0.40 0.40 0.40 0.40 0.40 0.40 0.40 0.38 0.40 0.38 0.38 0.40 0.40 0.40 0.40 0.40 0.40 0.40 0.40 0.40
0.42 0.42 0.44 0.46 0.44 0.42 0.38 0.38 0.36 0.36 0.34 0.33 0.33 0.31 0.31 0.31 0.29 0.27 0.27 0.27 0.27 0.27 0.27 0.25 0.25 0.27 0.27 0.29 0.29 0.29 0.31 0.33 0.34 0.34 0.33 0.33 0.31 0.31 0.31 0.33 0.33 0.33 0.33 0.33 0.34 0.34 0.34 0.34 0.34 0.34 0.34 0.36 0.38 0.38 0.40 0.42 0.42 0.42 0.42 0.42 0.40 0.40 0.40 0.40 0.40 0.40 0.40 0.40 0.40 0.40 0.40 0.40 0.40 0.40 0.40 0.40 0.40 0.40 0.40 0.40 0.40 0.40 0.40 0.40 0.40 0.40
0.38 0.38 0.38 0.40 0.38 0.36 0.34 0.34 0.34 0.34 0.33 0.33 0.33 0.33 0.31 0.31 0.29 0.27 0.27 0.27 0.29 0.29 0.27 0.27 0.27 0.27 0.29 0.29 0.29 0.31 0.33 0.33 0.34 0.34 0.34 0.33 0.33 0.31 0.31 0.33 0.33 0.33 0.33 0.33 0.33 0.34 0.34 0.34 0.36 0.36 0.36 0.38 0.38 0.40 0.40 0.42 0.42 0.42 0.42 0.42 0.42 0.40 0.40 0.40 0.40 0.40 0.40 0.40 0.40 0.40 0.40 0.40 0.40 0.40 0.40 0.40 0.40 0.40 0.40 0.40 0.40 0.40 0.40 0.40 0.40 0.40
0.34 0.34 0.34 0.34 0.34 0.33 0.33 0.33 0.33 0.33 0.33 0.33 0.33 0.33 0.33 0.33 0.31 0.29 0.29 0.31 0.31 0.31 0.29 0.29 0.29 0.29 0.31 0.31 0.31 0.31 0.31 0.33 0.34 0.34 0.34 0.33 0.31 0.31 0.33 0.33 0.33 0.33 0.33 0.33 0.33 0.34 0.34 0.34 0.36 0.36 0.36 0.38 0.38 0.40 0.40 0.40 0.42 0.42 0.42 0.42 0.42 0.42 0.40 0.40 0.40 0.40 0.40 0.40 0.40 0.40 0.40 0.40 0.40 0.40 0.40 0.40 0.40 0.40 0.40 0.40 0.40 0.40 0.40 0.40 0.40 0.40
0.33 0.33 0.33 0.33 0.33 0.33 0.33 0.33 0.33 0.34 0.34 0.34 0.34 0.34 0.33 0.33 0.33 0.33 0.33 0.33 0.33 0.33 0.31 0.31 0.31 0.31 0.31 0.31 0.31 0.31 0.29 0.31 0.33 0.34 0.34 0.31 0.31 0.31 0.31 0.31 0.31 0.33 0.33 0.31 0.31 0.31 0.33 0.34 0.36 0.36 0.38 0.38 0.38 0.38 0.40 0.40 0.40 0.40 0.42 0.40 0.40 0.40 0.40 0.40 0.38 0.38 0.40 0.40 0.40 0.40 0.40 0.40 0.40 0.40 0.40 0.40 0.40 0.40 0.40 0.40 0.40 0.40 0.40 0.40 0.40 0.38
0.31 0.31 0.31 0.31 0.33 0.33 0.33 0.34 0.34 0.34 0.36 0.36 0.34 0.34 0.34 0.34 0.34 0.34 0.34 0.34 0.34 0.33 0.33 0.33 0.31 0.31 0.31 0.29 0.29 0.27 0.27 0.29 0.31 0.33 0.34 0.31 0.31 0.31 0.31 0.31 0.31 0.31 0.33 0.33 0.31 0.31 0.31 0.33 0.34 0.36 0.38 0.36 0.38 0.38 0.38 0.38 0.38 0.40 0.40 0.40 0.40 0.40 0.40 0.40 0.38 0.38 0.38 0.38 0.38 0.38 0.38 0.40 0.40 0.40 0.40 0.40 0.40 0.40 0.40 0.40 0.40 0.40 0.40 0.38 0.38 0.38
0.31 0.31 0.31 0.31 0.33 0.33 0.34 0.34 0.34 0.36 0.36 0.36 0.36 0.36 0.36 0.36 0.36 0.36 0.36 0.36 0.34 0.34 0.33 0.33 0.33 0.31 0.31 0.29 0.27 0.27 0.27 0.31 0.33 0.34 0.33 0.31 0.31 0.31 0.31 0.31 0.31 0.31 0.33 0.33 0.31 0.31 0.29 0.29 0.31 0.34 0.36 0.36 0.36 0.36 0.38 0.38 0.38 0.38 0.40 0.38 0.38 0.40 0.40 0.38 0.38 0.38 0.38 0.38 0.38 0.38 0.38 0.38 0.38 0.38 0.38 0.38 0.38 0.38 0.38 0.38 0.38 0.40 0.38 0.38 0.38 0.38
0.33 0.33 0.33 0.33 0.33 0.34 0.34 0.34 0.34 0.36 0.36 0.36 0.36 0.38 0.38 0.38 0.38 0.38 0.38 0.38 0.36 0.36 0.34 0.33 0.33 0.31 0.31 0.29 0.29 0.29 0.29 0.31 0.33 0.34 0.34 0.33 0.33 0.31 0.31 0.33 0.33 0.33 0.33 0.33 0.33 0.31 0.31 0.31 0.31 0.33 0.34 0.36 0.36 0.38 0.38 0.40 0.40 0.40 0.40 0.38 0.38 0.38 0.40 0.38 0.38 0.38 0.36 0.36 0.36 0.36 0.36 0.36 0.36 0.36 0.36 0.36 0.38 0.38 0.38 0.38 0.38 0.40 0.40 0.38 0.38 0.38
0.34 0.34 0.34 0.34 0.34 0.34 0.34 0.34 0.36 0.36 0.36 0.38 0.38 0.38 0.38 0.38 0.38 0.38 0.38 0.38 0.38 0.36 0.34 0.33 0.33 0.31 0.31 0.29 0.29 0.29 0.29 0.31 0.33 0.34 0.36 0.34 0.33 0.33 0.33 0.33 0.33 0.33 0.33 0.33 0.33 0.33 0.31 0.33 0.33 0.33 0.33 0.34 0.36 0.38 0.38 0.38 0.40 0.40 0.40 0.40 0.38 0.38 0.38 0.38 0.36 0.36 0.36 0.34 0.34 0.34 0.36 0.36 0.36 0.36 0.36 0.36 0.36 0.38 0.38 0.38 0.38 0.40 0.40 0.40 0.40 0.40
0.34 0.34 0.34 0.34 0.34 0.34 0.34 0.34 0.36 0.36 0.36 0.38 0.38 0.38 0.38 0.38 0.38 0.38 0.38 0.38 0.38 0.36 0.36 0.34 0.33 0.31 0.31 0.31 0.29 0.29 0.31 0.33 0.34 0.36 0.36 0.36 0.34 0.34 0.33 0.34 0.34 0.34 0.34 0.34 0.34 0.34 0.33 0.34 0.34 0.34 0.34 0.34 0.36 0.36 0.38 0.38 0.40 0.40 0.40 0.40 0.38 0.38 0.38 0.36 0.36 0.34 0.34 0.34 0.34 0.34 0.34 0.34 0.36 0.36 0.36 0.36 0.36 0.38 0.38 0.38 0.38 0.40 0.40 0.42 0.42 0.42
0.34 0.34 0.34 0.34 0.34 0.34 0.34 0.34 0.36 0.36 0.36 0.36 0.38 0.38 0.38 0.38 0.38 0.38 0.38 0.38 0.38 0.36 0.36 0.36 0.34 0.34 0.34 0.33 0.31 0.31 0.33 0.34 0.36 0.38 0.38 0.38 0.38 0.36 0.36 0.36 0.36 0.36 0.34 0.36 0.34 0.34 0.34 0.34 0.34 0.34 0.34 0.34 0.34 0.34 0.36 0.36 0.38 0.38 0.38 0.38 0.38 0.38 0.38 0.36 0.36 0.34 0.34 0.34 0.33 0.34 0.34 0.34 0.34 0.36 0.36 0.36 0.38 0.38 0.38 0.38 0.40 0.40 0.42 0.42 0.42 0.42
0.33 0.33 0.33 0.33 0.34 0.34 0.34 0.34 0.34 0.36 0.36 0.36 0.36 0.38 0.38 0.38 0.38 0.38 0.38 0.38 0.38 0.36 0.36 0.36 0.36 0.36 0.34 0.34 0.34 0.34 0.36 0.36 0.38 0.38 0.40 0.40 0.40 0.40 0.38 0.38 0.38 0.38 0.36 0.36 0.36 0.36 0.34 0.34 0.34 0.34 0.34 0.34 0.34 0.34 0.34 0.36 0.36 0.36 0.36 0.38 0.38 0.36 0.36 0.36 0.36 0.36 0.34 0.34 0.34 0.34 0.34 0.34 0.34 0.36 0.36 0.36 0.38 0.38 0.38 0.38 0.40 0.40 0.42 0.42 0.42 0.42
0.33 0.33 0.33 0.33 0.34 0.34 0.34 0.34 0.34 0.36 0.36 0.36 0.36 0.36 0.38 0.36 0.36 0.36 0.36 0.36 0.36 0.36 0.36 0.36 0.36 0.36 0.36 0.36 0.36 0.36 0.36 0.38 0.38 0.38 0.40 0.40 0.40 0.40 0.38 0.38 0.38 0.38 0.38 0.36 0.36 0.36 0.36 0.34 0.34 0.34 0.34 0.34 0.34 0.34 0.34 0.34 0.34 0.36 0.36 0.36 0.36 0.36 0.36 0.36 0.36 0.34 0.34 0.34 0.34 0.34 0.34 0.34 0.36 0.36 0.36 0.36 0.36 0.36 0.36 0.36 0.38 0.38 0.40 0.40 0.40 0.40
0.33 0.33 0.33 0.33 0.34 0.34 0.34 0.34 0.34 0.36 0.36 0.36 0.36 0.36 0.36 0.36 0.36 0.36 0.36 0.36 0.36 0.36 0.36 0.36 0.36 0.36 0.36 0.36 0.36 0.36 0.36 0.36 0.38 0.38 0.40 0.40 0.40 0.38 0.38 0.38 0.36 0.38 0.38 0.38 0.36 0.36 0.36 0.34 0.34 0.34 0.34 0.34 0.34 0.34 0.34 0.34 0.34 0.34 0.34 0.34 0.34 0.34 0.36 0.36 0.36 0.36 0.36 0.34 0.34 0.34 0.34 0.34 0.36 0.36 0.36 0.36 0.36 0.36 0.36 0.36 0.36 0.38 0.38 0.38 0.40 0.40
0.33 0.33 0.33 0.34 0.36 0.36 0.36 0.36 0.36 0.36 0.36 0.36 0.36 0.36 0.36 0.34 0.34 0.34 0.34 0.34 0.34 0.34 0.36 0.36 0.36 0.36 0.36 0.36 0.36 0.36 0.36 0.36 0.38 0.38 0.38 0.38 0.38 0.38 0.38 0.38 0.38 0.36 0.36 0.36 0.36 0.36 0.36 0.36 0.36 0.34 0.34 0.34 0.34 0.34 0.34 0.34 0.34 0.34 0.34 0.34 0.33 0.33 0.34 0.36 0.36 0.36 0.36 0.36 0.34 0.34 0.34 0.36 0.36 0.36 0.36 0.36 0.36 0.36 0.36 0.36 0.36 0.36 0.38 0.38 0.38 0.38
0.34 0.34 0.34 0.36 0.36 0.36 0.36 0.36 0.36 0.36 0.34 0.34 0.34 0.34 0.34 0.33 0.33 0.33 0.33 0.34 0.34 0.34 0.34 0.36 0.36 0.36 0.34 0.34 0.34 0.36 0.36 0.36 0.38 0.38 0.38 0.38 0.40 0.40 0.38 0.38 0.38 0.38 0.36 0.36 0.36 0.36 0.36 0.36 0.34 0.34 0.34 0.34 0.34 0.34 0.34 0.34 0.34 0.34 0.34 0.33 0.33 0.33 0.34 0.36 0.36 0.36 0.36 0.36 0.36 0.36 0.36 0.36 0.36 0.36 0.36 0.36 0.36 0.36 0.36 0.36 0.36 0.36 0.38 0.38 0.38 0.36
0.34 0.34 0.36 0.36 0.36 0.36 0.36 0.36 0.36 0.36 0.34 0.34 0.33 0.33 0.33 0.33 0.33 0.33 0.33 0.33 0.33 0.34 0.34 0.34 0.34 0.33 0.33 0.34 0.34 0.36 0.38 0.38 0.38 0.40 0.40 0.38 0.38 0.38 0.38 0.38 0.38 0.38 0.36 0.36 0.36 0.36 0.36 0.36 0.34 0.34 0.34 0.34 0.34 0.34 0.34 0.34 0.34 0.34 0.34 0.33 0.33 0.33 0.33 0.34 0.34 0.34 0.34 0.36 0.36 0.36 0.36 0.36 0.36 0.36 0.36 0.36 0.36 0.36 0.36 0.36 0.38 0.38 0.38 0.38 0.38 0.38
0.36 0.36 0.36 0.36 0.36 0.36 0.36 0.36 0.36 0.34 0.34 0.34 0.34 0.33 0.33 0.34 0.34 0.33 0.33 0.33 0.33 0.33 0.33 0.33 0.33 0.33 0.34 0.34 0.34 0.36 0.36 0.36 0.38 0.38 0.38 0.38 0.38 0.38 0.38 0.38 0.38 0.38 0.38 0.36 0.36 0.34 0.36 0.36 0.36 0.36 0.36 0.36 0.36 0.36 0.34 0.34 0.34 0.34 0.34 0.33 0.33 0.33 0.31 0.33 0.33 0.34 0.34 0.34 0.36 0.36 0.36 0.36 0.34 0.34 0.34 0.34 0.36 0.36 0.36 0.36 0.38 0.38 0.38 0.38 0.38 0.38
0.36 0.36 0.36 0.36 0.36 0.36 0.36 0.36 0.36 0.36 0.36 0.34 0.34 0.34 0.34 0.34 0.34 0.34 0.34 0.33 0.34 0.34 0.34 0.34 0.34 0.34 0.34 0.34 0.34 0.36 0.36 0.36 0.38 0.38 0.38 0.38 0.38 0.38 0.38 0.38 0.38 0.38 0.38 0.36 0.36 0.34 0.34 0.36 0.36 0.36 0.36 0.36 0.36 0.36 0.34 0.34 0.34 0.33 0.33 0.33 0.33 0.33 0.33 0.31 0.33 0.33 0.33 0.34 0.34 0.34 0.36 0.36 0.36 0.34 0.34 0.34 0.34 0.36 0.36 0.36 0.36 0.38 0.38 0.38 0.38 0.38
0.36 0.36 0.36 0.36 0.36 0.36 0.36 0.36 0.36 0.36 0.36 0.34 0.34 0.34 0.34 0.36 0.36 0.36 0.34 0.34 0.36 0.36 0.36 0.36 0.36 0.36 0.34 0.34 0.36 0.36 0.36 0.36 0.36 0.36 0.38 0.38 0.38 0.38 0.38 0.38 0.38 0.38 0.36 0.36 0.36 0.34 0.34 0.34 0.34 0.36 0.36 0.36 0.36 0.34 0.34 0.34 0.34 0.33 0.33 0.33 0.33 0.33 0.33 0.33 0.33 0.33 0.33 0.34 0.34 0.34 0.36 0.36 0.34 0.34 0.34 0.34 0.34 0.34 0.36 0.36 0.36 0.36 0.38 0.38 0.38 0.38
0.36 0.36 0.36 0.36 0.36 0.36 0.36 0.36 0.36 0.36 0.36 0.36 0.36 0.36 0.36 0.38 0.38 0.38 0.38 0.36 0.36 0.38 0.36 0.36 0.36 0.36 0.34 0.36 0.36 0.36 0.34 0.34 0.36 0.36 0.36 0.36 0.36 0.36 0.36 0.36 0.36 0.36 0.36 0.36 0.36 0.36 0.36 0.34 0.36 0.36 0.36 0.36 0.34 0.34 0.34 0.33 0.33 0.33 0.33 0.33 0.33 0.33 0.33 0.34 0.34 0.34 0.34 0.34 0.34 0.34 0.34 0.34 0.34 0.34 0.34 0.33 0.34 0.34 0.34 0.36 0.36 0.36 0.38 0.38 0.38 0.38
0.36 0.36 0.36 0.38 0.38 0.38 0.38 0.38 0.38 0.38 0.38 0.38 0.38 0.38 0.38 0.40 0.40 0.40 0.40 0.38 0.38 0.38 0.38 0.38 0.38 0.38 0.36 0.36 0.36 0.34 0.34 0.34 0.34 0.34 0.34 0.34 0.34 0.34 0.36 0.36 0.36 0.36 0.36 0.36 0.36 0.38 0.38 0.36 0.36 0.36 0.34 0.34 0.33 0.33 0.33 0.33 0.33 0.33 0.33 0.33 0.33 0.33 0.33 0.33 0.33 0.33 0.34 0.34 0.34 0.34 0.34 0.34 0.34 0.33 0.33 0.33 0.33 0.34 0.34 0.36 0.36 0.38 0.38 0.38 0.38 0.38
0.38 0.38 0.38 0.38 0.38 0.38 0.38 0.38 0.40 0.40 0.40 0.40 0.40 0.40 0.40 0.42 0.42 0.42 0.40 0.40 0.40 0.40 0.40 0.38 0.38 0.36 0.36 0.36 0.36 0.34 0.34 0.33 0.33 0.33 0.33 0.33 0.34 0.34 0.34 0.34 0.36 0.36 0.36 0.36 0.36 0.36 0.38 0.36 0.36 0.34 0.34 0.33 0.33 0.31 0.31 0.33 0.33 0.33 0.31 0.31 0.31 0.31 0.31 0.31 0.33 0.33 0.34 0.34 0.34 0.34 0.34 0.34 0.33 0.33 0.33 0.33 0.33 0.33 0.34 0.34 0.36 0.36 0.38 0.38 0.38 0.38
0.40 0.40 0.40 0.40 0.40 0.40 0.40 0.40 0.40 0.42 0.42 0.42 0.42 0.42 0.44 0.44 0.44 0.44 0.42 0.42 0.42 0.40 0.40 0.38 0.38 0.36 0.36 0.34 0.34 0.34 0.34 0.34 0.33 0.33 0.33 0.33 0.34 0.34 0.34 0.34 0.34 0.34 0.36 0.36 0.36 0.34 0.36 0.36 0.36 0.36 0.34 0.34 0.33 0.33 0.33 0.33 0.33 0.33 0.33 0.33 0.31 0.31 0.31 0.31 0.33 0.33 0.33 0.33 0.33 0.33 0.34 0.34 0.33 0.33 0.33 0.33 0.33 0.33 0.33 0.34 0.36 0.36 0.38 0.38 0.38 0.38
0.40 0.40 0.40 0.40 0.40 0.40 0.40 0.42 0.42 0.42 0.42 0.42 0.42 0.44 0.44 0.44 0.44 0.44 0.44 0.42 0.42 0.40 0.40 0.38 0.38 0.36 0.36 0.34 0.34 0.34 0.34 0.34 0.33 0.33 0.33 0.33 0.33 0.33 0.33 0.33 0.33 0.33 0.33 0.34 0.33 0.33 0.33 0.34 0.34 0.34 0.34 0.34 0.34 0.34 0.33 0.33 0.33 0.33 0.33 0.33 0.33 0.33 0.31 0.31 0.33 0.33 0.33 0.33 0.33 0.33 0.33 0.33 0.33 0.33 0.33 0.33 0.33 0.33 0.33 0.33 0.34 0.34 0.36 0.36 0.36 0.38
0.42 0.42 0.42 0.42 0.42 0.42 0.42 0.42 0.42 0.42 0.44 0.44 0.44 0.44 0.44 0.44 0.44 0.44 0.44 0.42 0.40 0.40 0.40 0.38 0.38 0.38 0.36 0.36 0.34 0.34 0.34 0.34 0.33 0.33 0.33 0.33 0.33 0.33 0.33 0.31 0.31 0.31 0.31 0.31 0.31 0.29 0.31 0.31 0.31 0.33 0.33 0.36 0.36 0.36 0.34 0.33 0.33 0.33 0.33 0.33 0.33 0.33 0.33 0.33 0.33 0.33 0.33 0.33 0.33 0.33 0.33 0.33 0.33 0.33 0.33 0.33 0.33 0.33 0.33 0.33 0.34 0.34 0.36 0.36 0.36 0.36
Wind_Speed
25 25 24 25 25 26 26 26 26 25 25 24 24 25 25 24 23 21 20 20 20 21 22 22 22 22 22 22 22 21 21 20 20 19 18 17 16 16 16 15 15 14 14 13 12 12 12 12 12 12 12 12 13 13 13 13 13 13 14 14 14 14 14 14 14 14 14 14 13 13 13 13 13 13 13 13 13 12 12 12 12 13 12 12 12 12
25 25 25 25 25 26 26 27 26 25 25 24 25 25 24 23 22 21 20 20 20 21 22 22 22 22 22 22 22 21 21 20 20 19 18 17 16 16 16 15 15 14 13 13 12 12 12 12 12 13 13 13 13 13 13 13 13 14 14 14 14 14 14 14 14 14 14 13 14 14 14 14 14 14 13 13 13 13 13 13 13 13 13 13 13 12
25 25 25 25 26 26 26 26 26 25 24 24 24 24 24 23 22 21 21 21 21 22 22 22 22 22 22 22 22 21 21 20 19 18 18 17 16 16 16 15 15 14 13 13 12 13 13 13 13 13 13 13 13 14 14 14 14 14 14 14 14 14 14 14 14 14 14 14 14 14 14 14 14 14 14 13 13 13 13 13 13 13 13 13 13 13
26 25 25 26 26 26 26 26 25 24 24 23 23 23 23 22 22 22 21 21 22 22 22 23 22 22 22 22 21 21 20 20 19 18 17 17 16 16 16 15 14 14 13 13 13 13 13 13 13 14 14 14 14 14 14 14 15 14 14 14 14 14 14 14 14 14 14 14 14 15 15 14 14 14 14 14 14 13 13 13 13 13 13 13 13 13
26 26 26 26 26 26 26 25 25 24 23 23 23 22 22 22 22 22 22 22 22 23 23 23 22 22 21 21 20 20 19 18 18 17 17 17 17 16 16 15 14 13 13 13 13 13 14 14 14 14 14 15 15 15 15 15 15 15 15 15 15 15 15 15 15 15 15 15 15 15 15 15 14 14 14 14 14 14 14 14 14 13 13 13 13 13
27 27 26 26 26 26 26 25 24 24 23 23 23 22 22 22 23 23 24 23 23 23 23 22 22 21 20 20 19 18 18 17 17 16 16 17 17 16 16 15 14 13 13 13 14 14 14 14 14 15 15 15 15 15 15 15 15 15 15 15 15 15 14 14 15 15 15 15 15 15 15 14 14 14 14 14 14 14 14 14 14 14 13 13 13 13
28 27 27 26 26 26 25 25 24 24 24 24 23 23 23 23 24 24 24 24 24 23 23 22 21 21 20 19 18 17 17 16 16 16 16 16 16 16 15 14 14 14 14 14 14 14 14 15 15 15 15 15 15 15 15 15 15 15 14 14 14 14 14 14 14 14 14 14 14 14 14 14 14 14 14 14 14 14 14 14 14 14 14 14 13 13
28 28 27 27 26 26 25 25 24 24 24 24 24 24 24 25 25 25 25 24 24 23 23 23 22 20 19 18 18 17 16 16 16 16 16 16 16 15 14 14 14 14 14 14 14 14 15 15 15 15 15 15 15 15 15 14 14 14 14 14 14 14 14 14 14 14 14 14 14 14 14 14 14 14 14 14 14 14 14 14 14 14 14 14 14 14
27 27 27 27 26 25 25 25 24 24 25 25 25 25 25 25 25 25 25 25 24 24 23 23 22 20 19 18 17 17 16 16 16 16 16 16 15 15 14 14 14 14 14 14 14 15 15 15 15 15 15 15 15 15 14 14 14 14 14 14 14 14 14 14 14 14 14 14 14 13 13 13 13 14 14 14 14 14 14 14 14 14 14 14 14 14
27 27 27 26 26 25 24 24 24 25 25 25 25 25 25 25 25 25 25 25 24 24 23 22 21 20 19 18 17 17 17 17 17 17 16 16 15 14 14 14 14 14 14 14 15 15 15 15 15 15 15 15 15 15 14 14 14 14 14 14 14 14 14 14 14 14 14 13 13 13 13 13 13 13 13 14 14 14 14 14 14 14 14 14 14 14
26 26 26 26 25 25 24 24 24 24 24 25 25 25 25 25 25 25 24 24 24 23 22 21 20 19 19 19 18 18 17 17 17 17 16 15 15 14 14 14 14 14 14 15 15 15 15 15 15 15 15 15 15 15 15 14 14 14 14 14 14 14 14 14 14 13 13 13 13 13 13 13 13 13 13 14 14 14 14 14 14 14 14 14 14 15
26 26 25 25 25 25 25 24 24 24 24 24 25 25 25 25 25 24 23 23 22 21 21 20 19 19 18 18 19 19 19 18 18 17 16 15 14 14 14 14 14 14 15 15 15 15 15 15 15 15 15 15 15 15 15 14 14 14 14 14 14 14 14 13 13 13 13 13 13 13 13 13 13 13 13 14 14 14 14 14 14 14 14 15 15 15
26 26 25 25 25 25 25 24 24 24 25 25 25 24 24 24 24 23 22 22 21 20 20 19 18 18 18 18 19 19 19 19 18 17 16 15 14 14 14 14 14 14 15 15 15 15 15 16 16 16 15 15 15 15 15 14 14 14 14 14 14 14 13 13 13 13 13 13 13 13 13 13 13 14 14 14 14 14 14 14 14 14 14 15 15 15
26 25 25 25 25 25 25 25 24 25 25 25 25 24 24 23 23 22 21 21 20 20 19 18 18 18 18 19 19 20 19 18 17 16 15 14 14 14 14 14 14 15 15 15 15 16 16 16 16 16 15 15 15 15 15 14 14 14 14 14 14 14 13 13 13 13 13 13 13 14 14 14 14 14 14 14 14 14 14 14 14 14 14 15 15 15
25 25 25 25 25 25 25 25 25 25 25 25 24 24 23 23 22 21 20 20 19 19 18 17 17 18 19 19 19 19 18 17 16 15 15 14 14 14 14 14 15 15 15 15 16 16 16 16 16 16 15 15 15 15 14 14 14 14 14 14 14 14 14 14 14 14 14 14 14 14 14 14 14 14 14 14 14 14 14 14 14 15 15 15 15 15
25 25 25 25 25 25 25 25 25 24 24 24 24 23 22 22 21 20 19 19 18 18 17 17 17 18 19 19 19 18 17 16 15 15 14 14 14 14 14 15 15 15 15 15 16 16 16 16 16 16 15 15 15 15 14 14 14 14 14 14 14 14 14 14 14 14 14 14 14 14 14 14 14 14 14 14 15 15 15 15 15 15 15 15 15 15
24 24 24 24 24 24 24 24 24 24 23 23 23 22 21 21 20 19 18 18 17 17 17 17 18 18 19 18 18 17 16 15 15 14 14 14 14 14 15 15 15 15 15 16 16 16 16 16 16 15 15 15 15 15 14 14 14 14 14 14 14 14 14 14 14 14 14 14 14 14 14 15 15 15 15 15 15 15 15 15 15 15 15 15 15 15
24 24 23 23 23 23 23 23 23 23 23 22 22 21 20 20 19 18 18 17 17 17 17 18 18 18 18 17 17 16 16 15 14 14 14 14 15 15 15 15 15 15 15 16 16 16 16 16 15 15 15 15 15 15 15 14 14 14 15 15 15 14 14 14 14 15 15 15 15 15 15 15 15 15 15 15 15 15 15 15 15 16 16 16 16 16
23 23 22 22 22 22 22 22 22 22 22 21 20 19 19 18 18 17 17 17 17 17 18 18 18 18 17 16 15 15 15 14 14 14 14 14 15 15 15 15 15 15 15 16 16 16 15 15 15 15 15 15 15 15 15 15 15 15 15 15 15 15 15 15 15 15 15 15 15 15 15 15 15 16 16 16 16 16 16 16 16 16 16 16 16 16
22 22 21 21 21 21 21 21 21 21 20 19 18 18 17 17 17 17 17 17 17 18 18 18 18 17 16 15 15 15 14 14 14 14 14 14 15 15 15 15 15 15 15 15 15 15 15 15 15 15 15 15 15 15 15 15 15 15 15 15 15 15 15 15 15 15 15 15 15 15 16 16 16 16 16 16 16 16 16 16 16 16 16 16 16 16
21 21 20 20 20 20 20 20 20 19 18 17 17 17 17 17 17 17 17 18 18 18 18 18 17 17 16 15 15 14 14 14 13 13 14 14 14 15 15 15 15 15 15 15 15 15 15 15 15 15 15 15 15 15 15 15 15 15 15 15 15 15 15 15 16 16 16 16 16 16 16 16 16 16 16 17 17 17 17 17 17 17 16 17 17 17
19 19 19 19 19 19 19 18 18 17 16 16 16 16 16 17 17 17 18 18 18 18 17 17 16 16 15 14 14 14 14 13 13 13 13 14 14 15 15 15 15 15 15 15 15 15 15 15 15 15 15 15 15 16 16 16 16 16 15 15 15 15 15 16 16 16 16 16 16 16 16 16 17 17 17 17 17 17 17 17 17 17 17 17 17 17
18 18 18 18 18 18 17 16 16 16 16 15 16 16 17 17 17 17 18 18 17 17 16 15 15 15 14 14 14 13 13 13 13 13 13 13 14 14 14 14 14 14 15 15 15 15 15 15 15 15 15 15 16 16 16 16 16 16 16 15 15 16 16 16 16 16 16 16 16 17 17 17 17 17 17 17 17 17 17 18 18 18 18 18 17 17
16 16 16 16 16 16 15 15 15 15 15 15 16 16 17 17 17 17 17 17 16 16 15 14 14 14 13 13 13 13 13 13 13 13 13 13 14 14 14 14 14 14 14 15 15 15 15 15 15 15 15 16 16 16 16 16 16 16 16 16 16 16 16 16 16 16 17 17 17 17 17 17 18 18 18 18 18 18 18 18 18 18 18 18 18 18
15 15 15 15 15 15 14 14 15 15 15 15 16 16 16 16 16 16 15 15 15 14 14 13 13 13 13 13 13 13 13 13 13 13 13 13 13 14 14 14 14 14 14 15 15 15 15 15 15 15 15 16 16 16 16 16 16 16 16 16 16 16 16 17 17 17 17 17 18 18 18 18 18 18 18 18 18 18 18 18 18 18 19 19 19 19
14 14 14 14 14 14 14 14 14 15 15 15 16 16 16 15 15 15 14 14 14 13 13 12 12 12 13 13 13 13 13 13 13 13 13 13 13 13 14 14 14 14 14 15 15 15 15 15 15 15 15 15 15 15 16 16 16 16 16 16 16 16 17 17 17 17 18 18 18 18 18 18 18 18 18 18 18 19 19 19 19 19 19 19 19 19
13 13 13 13 13 13 13 14 14 14 15 15 15 15 15 14 14 13 13 13 13 13 12 12 12 12 12 12 12 13 13 13 13 13 13 13 13 13 14 14 14 14 14 15 15 15 15 15 16 16 15 15 15 15 15 15 16 16 16 16 16 17 17 17 18 18 18 18 18 19 19 19 19 19 19 19 19 19 19 19 19 19 19 20 20 20
12 13 13 13 13 13 13 13 14 14 14 14 14 14 14 14 13 13 13 13 13 12 12 12 12 12 12 12 12 12 13 13 13 13 13 13 13 13 14 14 14 14 14 15 15 15 15 15 16 16 16 15 15 15 15 15 16 16 16 17 17 17 18 18 18 18 19 19 19 19 19 19 19 19 19 19 19 20 20 20 20 20 20 20 20 20
12 12 12 12 13 13 13 13 13 13 14 14 14 14 13 13 13 13 13 13 12 12 12 12 12 11 11 12 12 12 13 13 13 13 13 13 13 13 14 14 14 14 14 15 15 15 15 15 16 16 16 16 16 16 16 16 16 16 17 17 18 18 18 19 19 19 19 19 19 19 19 20 20 20 20 20 20 20 20 20 21 21 21 21 21 21
13 13 13 13 13 13 13 13 13 13 13 13 13 13 13 13 12 12 12 12 12 12 12 11 11 11 11 12 12 12 13 13 13 13 13 13 13 14 14 14 14 14 15 15 15 15 15 16 16 16 16 17 17 17 17 17 17 17 18 18 18 19 19 19 20 20 20 20 20 20 20 20 20 20 21 21 21 21 21 21 21 21 22 21 21 21
13 13 13 13 13 13 13 13 13 13 13 13 13 12 12 12 12 11 11 11 11 11 11 11 11 12 12 12 12 12 13 13 13 13 14 13 14 14 14 14 14 15 15 15 15 15 15 16 16 16 17 17 18 18 18 18 18 19 19 19 19 20 20 20 20 21 21 21 21 21 21 21 21 22 22 22 22 22 22 22 22 22 22 22 22 22
13 14 14 14 14 13 13 13 13 13 12 12 12 12 11 11 11 11 11 11 11 11 11 11 11 12 12 12 12 12 13 13 13 14 14 14 14 14 14 14 14 15 15 15 15 15 16 16 17 17 17 18 18 19 19 19 19 20 20 20 20 20 21 21 21 21 21 22 22 22 22 22 22 23 23 23 23 23 23 23 23 23 23 23 22 22
13 14 14 14 13 13 13 13 13 12 12 12 11 11 11 11 11 11 11 11 11 11 11 11 12 12 12 12 13 13 13 13 14 14 14 14 14 14 15 15 15 15 16 16 16 16 16 17 17 18 18 18 19 19 19 20 20 20 20 21 21 21 21 21 22 22 22 22 22 23 23 23 23 23 24 24 24 24 24 24 24 23 23 23 23 23
13 13 13 13 13 13 13 12 12 12 11 11 11 11 11 11 11 11 11 11 11 11 12 12 12 12 12 13 13 13 14 14 14 14 14 14 14 15 15 15 16 16 16 16 17 17 17 18 18 18 19 19 19 20 20 20 21 21 21 21 22 22 22 22 22 22 23 23 23 23 24 24 24 24 24 24 24 24 24 24 24 24 24 23 23 23
12 12 12 12 12 12 12 12 11 11 11 11 11 11 11 11 11 11 12 12 12 12 12 12 13 13 13 13 13 13 14 14 14 14 15 15 15 15 16 16 16 16 17 17 17 17 18 18 18 19 19 20 20 20 20 21 21 22 22 22 22 23 23 23 23 23 24 24 24 24 24 24 24 24 24 24 25 25 25 24 24 24 24 24 24 23
12 12 12 12 11 11 11 11 11 11 11 11 11 11 11 11 12 12 12 12 12 13 13 13 13 13 13 13 13 13 14 14 14 15 15 15 16 16 16 17 17 17 17 17 17 18 18 18 19 19 20 20 20 21 21 21 22 22 22 23 23 23 24 24 24 24 24 25 25 25 25 25 25 25 25 25 25 25 25 25 25 25 24 24 24 24
11 11 11 11 11 11 11 11 11 11 11 11 11 12 12 12 12 12 12 13 13 13 13 13 13 13 13 13 13 14 14 14 15 15 16 16 16 16 17 17 17 17 17 18 18 18 18 19 19 20 20 20 21 21 21 22 22 22 23 23 24 24 24 25 25 25 25 25 25 25 25 25 25 25 25 25 25 25 25 25 25 25 25 25 24 24
11 11 11 11 11 11 11 11 11 11 11 11 11 11 12 12 12 12 12 12 12 12 13 13 13 13 13 14 14 14 15 15 15 16 16 17 17 17 17 17 18 18 18 18 19 19 19 19 20 20 21 21 21 22 22 23 23 23 24 24 25 25 25 25 26 26 26 26 26 26 26 26 26 26 25 25 25 25 25 25 25 25 25 25 25 25
10 10 10 10 10 11 11 11 11 11 11 11 11 11 11 11 11 12 12 12 12 13 13 13 13 14 14 14 15 15 15 16 16 16 17 17 17 17 18 18 18 19 19 19 19 19 20 20 20 21 21 22 22 23 23 23 24 24 25 25 25 26 26 26 26 26 26 26 26 26 26 26 26 26 26 26 26 26 26 26 26 25 25 25 25 25
10 10 10 10 10 11 11 11 11 11 11 11 11 11 11 12 12 12 12 12 12 13 13 14 14 14 15 15 15 16 16 16 17 17 18 18 18 18 18 18 19 19 19 20 20 20 21 21 22 22 22 22 23 23 24 24 25 25 25 26 26 26 26 26 26 26 26 26 26 26 26 26 26 26 26 26 26 26 26 26 26 26 26 25 25 25
11 11 11 11 11 11 11 11 11 11 11 11 12 12 12 12 13 13 13 13 13 14 14 14 15 15 15 16 16 16 17 17 17 18 18 18 19 19 19 19 19 20 20 21 21 22 22 22 23 23 24 24 24 25 25 25 26 26 26 26 26 26 26 26 26 26 26 26 26 26 26 26 26 26 26 26 26 26 26 26 26 26 26 26 25 24
11 11 11 11 11 11 11 11 11 11 12 12 12 13 13 13 13 13 14 14 14 15 15 15 15 15 16 16 16 17 17 17 18 18 19 19 19 20 20 20 21 21 21 22 22 23 23 23 24 24 24 25 25 25 26 26 27 27 27 27 27 27 27 26 26 25 25 25 26 26 26 26 26 26 26 26 26 27 27 26 26 26 26 26 25 25
11 11 11 11 11 11 11 11 12 12 12 13 13 13 13 14 14 14 14 14 15 15 15 15 15 15 16 16 17 17 17 18 18 19 19 20 20 21 21 21 22 22 22 22 23 23 24 24 24 25 25 25 25 26 26 26 27 27 27 27 27 26 26 26 26 25 25 25 25 25 25 25 26 26 26 26 26 27 26 26 26 26 26 26 25 25
11 11 11 11 11 12 12 12 12 13 13 13 13 14 14 14 14 14 15 15 15 15 15 15 15 16 16 16 17 17 18 18 19 19 20 20 21 21 22 22 22 22 22 23 23 23 24 24 25 25 25 25 25 26 26 26 26 27 27 27 26 26 26 26 26 25 25 25 25 25 25 25 26 26 26 26 26 26 26 26 26 26 26 26 25 25
11 11 11 12 12 12 13 13 13 13 13 14 14 14 14 14 15 15 15 15 15 15 15 15 16 16 16 17 17 18 18 19 19 20 20 20 21 21 22 22 22 22 22 23 23 23 23 24 24 24 25 25 25 25 26 26 26 26 26 26 26 26 26 26 26 25 25 25 25 25 25 25 25 25 25 25 25 25 25 25 25 25 26 25 25 25
12 12 12 12 13 13 13 13 14 14 14 14 14 15 15 15 15 15 15 15 15 15 16 16 16 16 17 18 18 19 19 19 20 20 20 20 21 21 21 21 22 22 22 22 22 23 23 23 24 24 24 25 25 26 26 26 26 26 26 26 26 26 26 26 25 25 25 25 25 24 24 24 24 24 24 24 25 25 25 25 25 25 25 26 26 26
13 13 13 13 13 14 14 14 14 14 15 15 15 15 15 15 15 15 15 15 15 16 16 16 17 17 18 18 19 19 19 20 20 20 20 20 20 20 20 21 21 21 22 22 22 23 23 23 24 24 24 25 25 26 26 26 26 26 26 26 26 26 26 25 25 25 25 25 25 24 24 24 24 24 24 24 24 24 24 25 25 25 26 26 26 26
14 14 14 14 15 15 15 15 15 15 15 15 15 15 15 14 15 15 15 15 16 16 16 17 18 18 19 19 19 19 19 20 20 20 20 20 20 20 20 20 20 21 21 22 22 23 24 24 24 25 25 25 25 26 26 26 26 26 26 26 26 26 26 26 26 25 25 25 25 24 24 24 24 24 24 24 24 24 24 25 25 25 26 26 26 26
15 15 15 15 15 15 15 15 15 15 15 14 14 14 14 15 15 15 15 16 16 17 17 18 18 18 19 19 19 19 19 19 19 19 19 20 20 20 20 20 21 21 21 22 23 23 24 25 25 25 25 25 26 26 26 26 26 26 26 26 26 26 26 26 26 25 25 25 25 24 24 24 24 24 24 24 25 25 25 25 25 25 25 26 25 25
16 16 16 16 16 16 15 15 15 15 14 14 14 14 15 15 15 16 16 16 17 17 18 18 18 18 19 19 19 19 19 19 19 19 19 20 20 20 20 21 21 21 22 22 23 23 24 24 25 25 26 25 25 25 25 25 25 25 25 25 25 25 25 25 25 25 25 25 24 24 24 24 24 24 24 24 25 25 25 25 24 24 24 25 25 25
17 17 16 16 16 16 15 15 15 15 15 15 15 15 15 15 16 16 17 17 17 18 18 18 18 18 18 18 19 19 19 19 19 19 20 20 20 20 21 21 21 21 22 22 22 23 23 23 23 24 24 25 25 24 24 24 24 24 24 24 24 24 24 24 24 24 24 24 24 23 24 24 24 24 24 24 24 24 24 24 24 23 23 23 24 24
Wind_Direction
276 276 276 275 276 277 278 278 278 278 277 276 274 272 272 273 274 274 274 274 276 278 281 284 286 287 288 287 287 286 285 283 280 278 276 273 271 269 266 264 261 260 258 258 258 258 259 261 262 264 265 266 267 268 268 269 269 269 270 271 272 272 273 274 275 276 277 278 279 280 281 282 283 283 284 285 285 286 286 287 287 288 289 289 291 292
275 276 276 276 277 277 278 278 277 276 275 275 274 273 273 274 274 273 272 273 275 278 280 283 285 287 287 286 286 285 283 280 278 275 272 270 268 265 263 261 259 257 256 256 257 258 259 261 263 265 266 268 269 270 270 270 270 270 270 270 271 271 272 273 274 275 276 277 278 278 280 281 282 282 283 283 284 284 285 286 286 286 287 288 288 289
273 275 276 277 277 278 278 278 276 275 274 274 273 273 273 273 272 271 272 274 277 279 281 283 285 286 286 285 285 283 281 278 275 272 269 267 265 262 260 258 256 255 254 255 256 258 260 262 265 267 268 270 271 271 271 271 271 271 271 271 271 271 272 273 274 275 276 276 277 278 279 280 281 281 282 282 283 284 284 285 285 285 286 286 287 287
272 273 274 276 278 279 278 277 275 274 273 273 272 272 272 271 271 272 274 276 279 281 282 283 285 285 285 284 283 281 278 275 272 269 267 264 262 260 258 256 254 253 252 253 255 258 261 263 266 268 269 271 271 272 272 272 272 272 272 272 272 272 273 273 274 275 275 276 276 277 278 279 280 280 281 281 282 282 283 284 284 285 285 286 286 286
272 273 274 276 278 279 279 276 274 272 271 271 271 271 271 270 271 273 276 278 281 282 284 285 285 285 284 283 282 279 276 273 270 268 265 263 261 258 256 254 252 251 252 254 256 259 262 264 267 269 270 271 272 272 272 272 272 272 272 272 272 273 273 273 274 274 275 275 276 277 277 278 278 279 279 280 280 281 282 283 283 284 285 285 285 285
273 274 276 277 279 279 278 275 272 270 268 268 269 270 270 270 272 275 278 280 282 284 285 286 285 284 282 281 279 277 274 271 269 267 265 262 260 258 255 253 252 252 253 255 258 260 263 265 267 269 270 271 271 272 272 272 272 272 272 272 272 272 273 273 274 274 275 276 276 277 277 277 278 278 278 279 279 280 281 282 283 283 284 284 285 285
275 276 276 277 278 277 276 274 271 268 266 266 266 268 269 271 274 277 279 281 283 284 285 285 284 281 279 277 275 274 271 269 268 266 265 262 259 256 253 252 252 253 255 257 260 262 264 266 268 269 270 271 271 271 271 271 271 271 271 271 271 271 272 273 273 274 275 276 277 277 277 277 277 278 278 279 279 279 280 281 282 282 283 283 284 284
274 275 275 276 276 275 274 272 270 268 266 265 265 267 270 273 275 278 280 281 283 283 282 281 280 278 276 273 271 270 268 267 267 266 264 262 258 254 252 251 252 254 256 259 261 263 265 267 269 270 270 271 271 271 271 271 271 270 270 270 270 271 272 272 274 275 276 276 277 277 278 278 278 278 278 279 279 279 279 280 280 281 282 282 283 283
271 272 273 273 273 273 272 271 270 268 267 266 266 267 270 273 275 277 278 279 280 279 278 277 275 274 272 270 269 267 266 266 265 265 263 260 256 253 251 252 253 255 257 259 262 264 266 268 269 270 271 271 271 271 271 271 271 271 271 270 271 271 272 273 274 275 276 276 277 278 278 278 279 279 279 279 279 279 279 279 279 280 280 281 282 282
268 269 270 271 271 271 271 270 269 268 268 267 268 268 270 271 273 275 276 276 276 276 275 274 272 271 270 269 268 266 265 265 264 263 261 257 254 252 252 253 254 256 258 260 262 265 267 268 269 270 271 271 271 271 272 272 272 271 271 271 271 271 272 273 274 275 276 276 277 277 278 279 279 279 279 279 279 279 279 279 279 279 279 280 281 281
268 268 268 269 270 270 269 268 268 268 268 268 269 270 271 271 272 272 272 273 273 272 271 271 270 269 269 269 268 267 265 264 262 260 258 255 252 251 252 253 255 257 259 261 263 265 267 268 269 270 270 271 272 272 272 272 272 272 271 271 271 271 272 273 274 274 275 276 276 277 278 278 279 280 280 280 280 279 279 279 279 278 279 279 279 280
268 268 268 268 268 268 268 268 267 267 267 268 269 270 270 271 271 270 270 269 269 268 268 268 268 268 268 268 268 267 265 262 260 258 255 252 251 251 252 254 256 258 260 262 264 266 268 269 270 270 271 271 272 272 272 272 272 271 271 270 270 271 271 272 273 274 275 275 276 277 278 278 279 280 280 280 280 280 280 280 279 279 278 278 278 279
268 268 267 267 267 267 267 267 267 266 266 267 268 269 269 269 269 269 268 266 265 265 265 264 265 266 267 267 266 264 262 260 257 255 253 252 252 253 254 256 258 259 261 263 265 266 268 269 269 270 271 271 272 272 272 272 271 271 270 270 270 270 271 272 273 274 275 275 276 276 277 278 279 280 280 280 281 281 281 280 280 280 279 278 278 278
268 267 267 267 267 267 266 266 266 266 267 267 268 268 268 268 268 267 266 264 263 263 262 262 262 263 265 265 264 262 259 256 254 252 250 251 253 256 257 259 260 261 263 264 266 267 268 268 269 270 270 271 271 271 271 271 271 270 269 269 269 270 271 272 273 274 275 275 276 277 277 278 279 280 280 281 281 281 281 281 281 280 280 279 279 278
267 267 267 267 267 266 266 266 266 266 267 268 268 268 268 267 265 264 263 261 260 260 260 260 261 263 263 263 262 260 256 253 250 249 249 251 254 257 258 260 261 263 264 265 266 267 267 268 268 269 270 270 270 271 271 270 270 269 269 269 269 270 271 272 273 274 275 275 276 277 277 278 279 280 280 281 281 281 282 282 281 281 280 280 279 279
267 267 267 267 266 266 266 265 266 266 267 267 267 266 265 263 262 261 260 258 258 257 258 259 262 263 263 261 259 257 253 250 247 247 249 251 255 258 260 261 262 264 265 266 267 267 267 267 267 268 268 269 270 270 270 269 269 269 269 269 270 270 271 272 273 274 275 275 276 277 277 278 279 279 280 281 281 281 282 282 282 281 281 280 280 279
267 267 267 267 267 266 266 265 266 266 266 266 265 264 263 261 259 258 258 257 256 256 257 259 262 263 262 259 256 253 250 247 246 248 250 252 255 259 261 261 262 264 265 266 267 267 267 267 267 267 268 268 269 269 269 269 269 269 269 269 270 270 271 272 273 274 275 276 276 277 277 278 279 279 280 280 281 281 281 281 281 281 281 280 280 279
267 267 267 267 267 266 265 265 265 265 264 264 263 262 260 259 258 257 256 256 255 256 257 259 259 260 258 255 252 250 248 246 247 249 251 253 256 259 262 262 263 264 265 266 267 267 267 267 266 267 268 269 269 269 269 269 269 269 269 270 270 271 271 272 273 274 275 276 277 277 278 278 279 279 280 280 280 280 281 281 281 281 280 280 280 279
266 265 265 266 266 265 264 263 263 263 262 261 260 259 258 257 256 256 255 255 256 256 256 257 256 256 254 251 248 247 247 247 248 250 252 255 257 260 263 263 264 264 265 266 267 267 267 267 266 266 267 268 269 269 269 269 269 269 270 270 271 271 272 272 273 275 276 276 277 277 278 278 279 279 279 279 280 280 280 280 280 280 280 280 280 280
265 264 264 264 264 264 263 262 262 262 261 259 258 257 256 255 255 255 255 255 255 254 254 253 252 251 249 247 246 246 247 248 250 252 254 256 258 260 263 264 264 265 265 266 267 268 268 267 267 267 267 269 269 269 269 269 269 270 270 271 271 272 272 273 274 275 276 276 276 277 277 278 278 278 279 279 279 279 280 280 280 280 279 279 280 279
264 264 263 264 263 263 262 262 261 260 259 257 256 255 255 255 254 254 254 253 252 251 251 249 247 246 246 245 245 246 248 250 251 253 255 257 259 261 263 264 264 265 265 266 267 268 269 268 268 267 268 269 269 269 269 269 270 270 271 271 271 272 273 274 275 276 276 275 276 276 277 277 278 278 278 279 279 279 279 279 279 279 279 279 279 279
264 263 264 264 264 264 263 262 260 257 255 253 253 253 254 253 252 252 251 250 248 247 246 244 244 244 244 244 245 248 250 252 253 254 256 259 260 261 263 264 264 265 265 266 268 269 270 269 269 269 269 270 270 270 270 270 270 270 271 271 272 272 273 274 275 276 276 275 276 277 277 277 278 278 278 278 278 278 278 278 279 279 279 278 278 278
265 264 264 264 265 266 265 262 258 254 251 251 251 252 253 252 250 249 247 246 244 243 242 241 242 243 244 245 247 250 253 254 255 256 258 259 261 262 263 264 265 265 266 267 268 270 271 271 270 270 269 270 271 271 271 271 271 271 271 272 272 273 274 275 276 276 276 276 276 277 278 278 278 278 278 278 278 278 278 278 278 278 278 278 278 277
264 264 264 265 266 267 265 261 256 252 250 251 252 253 253 252 250 247 245 243 242 240 240 240 241 243 246 248 250 252 255 256 257 258 259 260 261 263 264 265 265 266 266 267 269 271 271 271 271 270 270 271 271 272 272 271 271 271 272 272 272 273 274 275 276 276 276 277 277 277 278 278 279 279 279 279 279 278 278 278 278 278 278 278 277 277
263 263 264 265 266 266 263 259 254 251 250 250 251 251 250 248 246 244 242 241 240 240 240 241 243 245 248 250 252 254 256 258 259 259 260 260 262 263 264 265 265 266 266 268 269 270 271 271 272 271 271 271 272 272 272 272 271 272 272 272 273 274 275 275 276 276 276 277 277 278 278 278 279 279 279 279 279 279 278 278 278 278 277 277 277 277
262 262 263 264 265 264 261 256 252 249 247 247 247 246 245 243 242 240 240 240 240 240 241 242 244 247 249 252 254 255 257 259 260 260 260 261 262 264 265 265 266 266 266 267 269 269 270 271 272 273 273 273 273 273 273 273 272 272 272 273 274 274 275 276 276 277 277 277 278 278 278 278 279 279 279 279 279 279 278 278 278 278 277 277 277 276
260 260 261 263 263 262 258 253 249 246 245 244 243 241 241 240 240 239 239 240 241 241 242 243 246 249 251 253 255 257 258 259 261 261 261 262 263 264 265 266 266 267 267 268 269 270 271 272 273 274 274 274 274 274 274 274 273 273 273 274 274 275 276 276 277 277 278 278 278 278 278 279 279 279 279 279 279 279 278 278 278 278 277 277 276 276
257 257 258 258 259 258 255 251 247 245 243 241 240 239 239 240 239 238 239 240 242 243 243 245 247 250 252 254 256 258 260 261 261 262 262 263 264 265 265 266 267 267 268 269 270 271 272 273 274 274 275 276 276 275 275 275 275 275 275 275 275 276 277 277 278 278 278 278 279 279 279 279 279 279 278 278 278 278 278 278 278 278 277 277 276 276
256 255 255 255 255 254 252 250 247 244 242 240 239 239 240 241 241 240 240 241 242 243 245 246 249 251 253 256 258 261 262 262 262 262 263 264 265 266 266 267 268 268 269 271 272 273 274 274 275 275 276 277 277 276 276 276 276 276 276 277 277 278 279 279 279 279 279 279 279 279 279 279 279 278 278 278 278 278 278 278 278 277 277 277 276 275
257 257 257 256 256 254 252 250 248 245 242 241 240 240 241 241 242 242 242 243 244 245 246 248 250 253 255 258 261 263 264 264 263 263 263 265 266 267 268 268 269 270 271 272 273 274 275 276 276 276 277 278 278 277 276 276 276 277 277 278 279 280 280 281 281 280 280 280 279 279 279 279 278 278 278 278 278 278 277 277 277 277 277 277 276 275
258 257 257 257 257 255 253 251 249 246 244 243 242 243 243 242 242 243 244 245 246 248 249 251 253 255 257 260 262 265 266 266 265 264 263 266 267 268 269 269 270 271 272 272 273 274 275 276 277 277 278 278 279 278 278 278 277 278 278 278 279 280 281 282 282 281 281 280 280 279 279 279 279 278 278 278 278 278 278 277 277 277 277 276 276 275
256 256 255 255 255 254 252 250 248 247 246 245 245 245 245 244 243 244 246 248 250 252 253 255 256 258 260 261 262 264 266 267 266 265 265 267 268 269 270 270 271 272 273 274 274 274 275 276 277 278 279 279 279 280 280 279 279 279 279 279 279 280 281 282 282 282 281 281 281 280 280 280 279 279 279 278 278 278 278 278 277 277 277 276 275 275
254 254 253 253 252 251 250 249 248 247 247 247 247 247 247 247 247 247 248 251 254 256 257 258 260 261 262 263 264 265 266 267 267 266 267 268 270 271 271 272 273 274 275 276 276 276 276 277 278 279 280 280 280 281 281 281 281 280 280 280 280 281 281 282 282 282 281 281 281 280 280 280 280 280 279 279 278 278 278 277 277 277 276 275 275 275
253 252 251 250 250 249 248 248 248 248 248 248 249 249 249 250 250 251 253 254 256 259 261 261 262 263 263 265 266 267 268 268 267 267 268 270 271 272 273 274 275 276 277 278 279 279 280 280 281 281 281 282 282 282 282 282 282 282 281 281 281 282 282 282 282 282 281 281 281 280 280 280 280 280 280 279 279 278 278 277 277 276 276 275 274 274
252 252 251 250 249 248 248 248 248 249 249 250 251 252 252 253 254 255 257 258 259 261 262 263 264 264 265 266 267 268 269 269 268 268 269 272 273 275 276 276 277 278 279 280 281 281 282 282 282 282 283 283 283 282 282 282 283 282 282 282 282 282 282 282 282 282 282 281 281 281 280 280 280 280 280 279 279 278 277 277 276 276 275 275 274 274
251 251 251 250 250 249 249 249 250 250 251 252 254 255 256 256 257 258 259 260 261 262 263 263 264 265 266 267 268 269 269 269 269 269 271 273 276 277 278 279 279 280 280 281 281 282 282 283 283 283 284 284 284 283 283 283 283 283 283 283 282 282 282 282 282 282 282 281 281 281 280 280 280 280 279 279 278 278 277 277 276 275 275 274 274 274
250 249 250 250 249 249 249 250 251 252 253 254 256 257 258 259 259 259 260 261 261 262 263 264 265 266 267 268 269 270 271 270 270 271 274 275 277 279 280 280 280 280 281 281 281 281 282 283 284 284 284 284 284 284 284 284 284 284 284 283 283 283 283 283 283 283 282 281 281 281 280 280 280 279 279 278 278 278 277 277 276 275 275 274 274 273
248 247 248 249 249 250 250 252 253 254 255 256 257 258 259 260 260 260 260 260 261 262 263 264 265 267 269 270 271 272 273 273 273 274 276 276 278 280 281 281 281 281 281 281 282 282 283 284 285 286 285 285 285 285 285 285 285 284 284 284 284 284 284 284 283 283 282 281 281 280 280 279 279 278 278 278 278 277 277 276 276 275 274 274 273 273
246 247 248 248 249 250 252 253 254 255 256 256 257 257 258 259 259 260 261 261 262 263 264 265 267 268 270 272 273 275 275 276 276 276 276 277 278 280 281 282 282 282 283 283 283 283 284 284 285 286 286 286 286 286 286 286 285 285 285 285 284 284 284 284 284 283 282 281 281 280 280 279 278 278 277 277 277 276 276 276 275 275 274 274 273 273
246 247 248 249 249 250 251 252 253 253 254 254 255 256 257 258 260 262 263 264 265 266 267 268 270 271 272 273 275 276 276 277 277 277 277 277 278 279 281 282 283 283 284 284 284 284 284 285 285 285 286 287 287 287 287 286 286 285 286 286 285 285 284 284 284 283 282 281 280 280 279 279 278 277 276 276 275 275 274 274 274 274 274 273 273 272
246 247 247 248 248 249 250 250 251 251 252 253 255 256 257 259 261 263 265 267 268 270 271 272 273 274 275 276 276 277 278 279 279 279 279 279 279 280 281 282 283 284 284 284 285 285 285 285 285 285 286 286 287 287 286 287 286 286 286 286 285 285 285 284 283 283 282 281 280 279 279 278 277 276 275 275 274 274 274 273 272 272 272 272 271 270
245 246 246 246 247 248 249 250 251 252 253 255 257 258 259 261 263 265 267 269 271 273 274 275 275 276 277 279 280 280 281 281 281 281 281 281 280 281 281 282 283 284 284 285 285 285 286 286 286 286 287 287 287 287 287 287 287 287 287 286 286 286 285 284 283 283 282 281 280 279 278 277 276 276 275 274 274 274 273 273 272 271 271 270 270 269
244 244 245 246 247 249 251 253 254 256 257 258 260 261 263 265 267 269 271 272 273 274 275 275 276 277 279 280 281 283 283 283 283 283 282 282 281 281 281 282 283 283 284 285 286 286 287 287 287 287 288 288 288 287 287 288 288 288 287 287 287 286 286 285 284 283 282 281 280 279 278 277 276 276 275 274 274 273 273 272 271 270 270 269 269 268
244 245 246 248 251 253 255 256 258 259 261 262 264 266 268 270 271 272 273 273 274 274 275 276 277 278 280 281 282 283 284 284 284 284 284 283 283 282 282 283 283 284 285 286 287 287 288 288 288 288 289 289 289 288 288 288 288 288 288 287 287 286 285 284 284 283 282 281 281 280 278 278 277 276 275 274 274 273 272 271 270 270 270 269 268 268
247 248 250 252 254 256 257 259 261 263 264 266 268 269 270 271 272 273 273 273 274 274 275 276 277 279 280 281 282 283 284 285 286 286 285 285 285 285 284 284 284 285 285 286 287 288 288 289 289 289 290 289 289 289 289 289 289 289 288 288 287 286 285 285 284 284 283 282 281 280 279 278 277 276 275 274 273 272 271 270 270 269 269 269 268 268
251 252 254 256 257 259 260 261 263 265 266 268 269 270 270 271 272 272 272 273 274 275 275 277 278 279 280 281 283 284 285 286 287 287 288 287 287 286 286 286 286 285 286 286 287 288 289 289 289 290 290 290 289 289 288 289 289 289 288 288 287 287 286 285 285 284 283 282 282 281 279 278 277 276 275 274 273 272 271 270 269 269 269 269 268 268
255 256 258 259 260 261 263 264 265 266 267 268 268 269 270 270 271 272 273 274 275 276 277 278 279 280 281 283 284 285 286 287 288 288 289 289 289 289 288 287 287 287 287 287 287 288 288 289 289 290 290 290 289 289 289 289 288 288 288 288 287 287 286 285 284 284 283 282 281 280 279 278 277 276 275 274 273 272 271 270 269 269 268 268 268 267
257 259 260 261 262 263 264 265 266 267 267 268 268 269 269 270 271 272 274 275 276 277 279 280 281 282 283 284 285 286 287 288 289 289 290 290 290 290 290 290 289 289 289 289 289 289 289 288 288 289 289 289 289 289 289 289 288 288 288 287 287 286 285 284 284 283 283 282 281 280 279 278 277 276 276 275 274 272 271 270 269 269 269 268 268 267
259 260 261 262 263 264 265 266 267 267 267 268 268 269 270 271 272 273 275 277 278 279 280 282 283 284 285 286 287 288 288 289 290 290 290 290 291 291 291 291 291 291 291 291 291 291 290 290 289 288 288 289 289 289 289 289 289 288 288 287 286 285 284 284 283 283 282 281 280 279 278 277 277 276 275 275 274 273 272 271 270 269 269 268 268 268
260 261 262 263 264 265 266 266 266 267 267 267 268 269 271 273 274 276 277 278 280 281 282 283 284 285 286 287 287 288 289 289 290 290 291 291 291 292 292 292 292 293 293 292 292 292 293 293 292 290 289 288 289 289 290 290 289 289 288 288 287 286 285 284 284 283 282 281 280 279 278 278 277 276 275 275 274 274 273 271 270 269 269 269 269 269
260 261 262 263 264 265 265 266 266 266 266 267 268 270 272 274 276 277 279 280 281 282 283 284 285 286 286 287 288 288 288 289 290 291 291 292 292 293 293 293 293 293 293 294 294 295 295 296 296 295 293 290 289 289 291 291 291 290 290 289 289 288 287 286 285 285 283 282 281 280 279 278 277 276 275 274 274 273 273 272 271 270 270 270 271 271